Weather Roundup
Issued by NWS Chicago, IL

Home | Current Version | Previous Version | Text Only | Print | Product List | Glossary Off
Versions: 1 2 3 4 5 6 7 8 9 10 11 12 13 14 15 16 17 18 19 20 21 22 23 24 25 26 27 28 29 30 31 32 33 34 35 36 37 38 39 40 41 42 43 44 45 46 47 48 49 50

000
NZUS59 KLOT 220810
HRRLOT

CHICAGO AREA WEATHER ROUNDUP
NATIONAL WEATHER SERVICE CHICAGO/ROMEOVILLE IL
300 AM CDT TUE JUL 22 2014

NOTE: "FAIR" INDICATES FEW OR NO CLOUDS BELOW 12,000 FEET WITH NO
SIGNIFICANT WEATHER AND/OR OBSTRUCTIONS TO VISIBILITY.

* THESE STATIONS ARE NOT UNDER NWS QUALITY CONTROL. THEY ALSO MAY NOT
  REPORT WEATHER SUCH AS PRECIPITATION OR FOG.

ILZ005-006-012>014-019>023-220900-
NORTHEAST ILLINOIS

CITY           SKY/WX    TMP DP  RH WIND       PRES   REMARKS
OHARE          CLEAR     72  63  73 S7        30.05S
MIDWAY         CLEAR     73  65  75 S7        30.06R
AURORA         CLEAR     68  64  87 S7        30.06S
LANSING*       CLEAR     65  63  91 S3        30.07S
JOLIET*        CLEAR     65  64  95 CALM      30.07F FOG
WAUKEGAN       CLEAR     68  64  87 S6        30.04F
DUPAGE AIRPORT CLEAR     69  65  86 S7        30.05F
WHEELING       CLEAR     73  65  75 S7        30.06F
KANKAKEE*      CLEAR     64  63  97 CALM      30.09R FOG
MORRIS*        CLEAR     66  66  99 CALM      30.06S
LEWIS AIRPORT* CLEAR     66  64  95 S3        30.07S
NORTHERLY IS     N/A     74  63  68 S7          N/A
$$

WIZ051-052-058>065-066-070>072-220900-
SOUTHEAST WISCONSIN

CITY           SKY/WX    TMP DP  RH WIND       PRES   REMARKS
MILWAUKEE      CLEAR     72  65  78 SW8       30.02S
KENOSHA*       CLEAR     70  65  84 S8        30.04F
RACINE*        CLEAR     72  65  78 S8        30.04F
BURLINGTON     CLEAR     67  64  91 S7        30.02F
WAUKESHA       CLEAR     68  63  83 S7        30.03F
WEST BEND      CLEAR     70  63  78 S6        30.01F
$$

INZ001>003-010>013-019-020-220900-
NORTHWEST INDIANA

CITY           SKY/WX    TMP DP  RH WIND       PRES   REMARKS
GARY*          CLEAR     67  65  93 CALM      30.07S
MICHIGAN CITY* NOT AVBL
RENSSELAER*    NOT AVBL
VALPARAISO     CLEAR     66  63  90 S3        30.09S
$$

LMZ740>746-220900-
SOUTHERN LAKE MICHIGAN

STATION/POSITION TIME  SKY/WX   TEMP WIND        PRES    VSBY
                                AIR  DIR/SP/G
                 (UTC)          (F)  (DEG/KT/KT) (MB)    (MI)
HARRISON CRIB    0800            73  190/ 12/ 13   N/A
BURNHAM HARBOR   0800            73  180/  4/ 10   N/A
CALUMET HARBOR   0800            72  190/  4/  5 1016.9S
BURNS HARBOR     0800            70  190/  7/  8 1018.6S
MICHIGAN CITY    0800            73  150/ 10/ 13   N/A
$$

ABBREVIATIONS USED IN REMARKS
   TC - TEMPERATURE IN CELSIUS
  WCI - WIND CHILL INDEX
   HX - HEAT INDEX
  VSB - VISIBILITY
$$


USA.gov is the U.S. government's official web portal to all federal, state and local government web resources and services.